Lid_Strength_Index
1 3 5 5 12 14 16 13 10 10 11 10 8 8 7 6 8 10 3 1 1 1 0 -0 -1 -1 -1 -1 -1 -1 -1 -1 -1 -1 -1 -1 -1 -1 -1 -1 -2 -2 -2 -2 -2 -2 -2 -2 -1
4 3 7 9 14 17 15 12 10 10 9 8 7 7 7 8 4 4 3 1 1 0 0 0 -1 -1 -1 -1 -1 -1 -1 -1 -1 -1 -1 -1 -1 -1 -1 -1 -1 -2 -2 -2 -2 -2 -2 -2 -2
2 3 9 11 15 16 14 11 9 9 7 8 7 5 6 6 4 3 2 1 0 1 0 0 -1 -1 -1 -1 -1 -1 -1 -1 -1 -1 -1 -1 -1 -1 -1 -1 -2 -2 -2 -2 -2 -2 -2 -2 -1
3 5 7 13 15 13 10 9 8 9 8 9 7 7 5 3 3 2 1 1 1 1 0 -0 -1 -1 -1 -1 -1 -1 -1 -1 -1 -1 -1 -1 -1 -1 -1 -1 -2 -2 -2 -2 -2 -2 -2 -2 -1
3 8 12 15 14 12 9 9 9 9 9 9 9 7 6 3 2 1 1 1 1 1 0 0 -1 -1 -1 -1 -1 -1 -1 -1 -1 -1 -1 -1 -1 -1 -1 -1 -2 -2 -2 -2 -2 -2 -2 -2 -2
7 9 13 15 12 9 8 8 9 9 9 9 8 6 6 2 2 2 1 1 1 1 0 0 -1 -1 -1 -1 -1 -1 -0 -1 -1 -1 -1 -1 -1 -1 -1 -1 -2 -2 -2 -2 -2 -2 -2 -2 -2
8 11 14 13 11 10 8 8 9 9 9 9 8 8 5 4 2 1 1 1 2 0 0 0 0 -0 -1 -1 -1 -1 -0 -1 -0 -0 -1 -1 -1 -1 -1 -1 -2 -2 -2 -2 -2 -2 -2 -2 -2
6 9 12 11 10 10 6 6 8 8 7 7 7 9 8 4 3 2 1 1 1 1 1 0 0 0 0 0 -1 -1 -1 -1 -1 -1 -1 -1 -1 -1 -1 -1 -1 -2 -2 -2 -2 -2 -2 -1 -1
7 11 13 11 10 9 6 8 5 5 6 7 7 7 4 3 3 4 3 2 2 1 1 1 0 0 0 0 -0 -1 -1 -1 -1 -1 -1 -0 -0 -0 -0 -1 -1 -2 -2 -2 -2 -1 -1 -1 -1
11 13 11 7 7 8 7 6 5 6 6 7 7 6 6 4 3 4 3 4 3 3 2 1 1 0 0 0 0 0 0 0 -0 0 0 0 1 0 -0 -1 -1 -1 -2 -1 -1 -1 -1 -1 0
12 13 9 8 7 7 7 7 5 6 8 6 7 7 6 6 6 5 3 3 3 2 2 1 1 0 0 0 0 0 0 0 0 0 0 0 0 0 0 0 0 0 -1 0 -0 -0 -0 0 0
14 11 10 9 8 8 8 7 8 6 6 5 5 5 6 7 7 7 5 4 3 2 2 1 1 1 0 0 0 0 0 0 0 0 0 0 0 0 0 0 0 0 0 0 0 0 0 0 0
13 12 11 10 9 8 7 7 8 8 6 4 4 4 5 6 7 5 3 3 3 3 2 1 1 1 1 1 0 0 0 0 0 0 0 0 0 1 0 0 0 0 0 0 0 0 0 0 0
11 11 11 11 11 10 10 10 8 8 6 5 5 5 5 5 5 5 3 3 3 3 3 2 1 1 1 1 1 1 0 0 0 0 0 0 0 0 0 2 2 2 1 1 1 0 0 0 0
11 13 12 12 11 11 9 11 11 8 7 7 6 5 5 5 5 5 5 3 3 2 3 3 2 1 1 1 1 1 0 0 0 1 1 1 1 1 2 2 3 3 3 3 2 2 1 1 1
13 14 17 13 10 9 8 13 10 8 8 8 7 6 5 5 4 4 5 2 3 3 3 2 2 2 1 1 1 1 1 0 0 0 1 1 1 2 2 3 3 3 3 4 3 2 3 2 1
15 17 16 13 10 10 10 13 10 8 9 9 8 8 7 6 6 4 4 3 2 3 3 3 2 2 1 1 1 1 1 1 0 1 1 1 1 2 3 3 3 3 3 4 3 2 2 3 3
15 16 14 14 11 11 12 12 11 9 9 10 9 9 8 7 6 5 4 4 4 2 2 2 2 2 1 1 1 1 1 1 2 1 1 1 1 2 3 2 3 3 4 4 4 3 2 3 2
12 13 14 12 10 12 12 12 11 10 10 10 10 9 8 8 7 5 4 3 4 2 3 3 2 1 1 2 2 2 2 2 2 2 3 2 1 1 2 2 3 3 3 3 3 4 3 3 3
13 14 14 12 10 11 12 13 11 10 10 10 10 9 8 7 6 6 5 5 4 4 2 3 2 2 2 1 2 2 2 4 2 2 2 3 1 0 1 2 2 3 3 4 3 3 4 4 3
13 13 13 13 11 11 12 14 12 10 10 9 9 9 8 8 7 6 6 6 5 4 3 2 2 2 2 1 3 5 5 5 4 4 4 2 0 0 1 1 2 2 2 3 4 3 4 5 4
13 9 10 11 13 17 12 18 14 12 11 10 10 10 9 8 7 7 5 5 6 5 2 2 2 2 2 3 2 4 3 4 3 3 2 1 1 1 1 1 2 2 3 3 3 3 4 4 4
11 9 10 11 13 15 14 17 15 12 12 11 9 9 8 8 8 8 7 5 4 3 2 2 2 2 2 2 2 2 4 3 3 2 2 2 1 1 1 2 3 3 2 3 3 2 3 2 3
8 11 12 13 14 18 14 15 16 14 13 10 9 8 7 7 7 7 7 6 5 4 3 3 3 3 3 2 2 2 3 3 3 3 3 3 3 2 2 2 2 2 2 3 2 2 2 2 3
10 14 18 19 18 19 12 14 15 11 9 9 8 8 7 7 7 6 6 6 6 6 3 4 3 3 2 2 2 2 2 2 3 3 3 3 4 4 3 2 2 2 2 1 2 3 3 3 3
12 13 18 22 20 18 12 17 13 9 7 7 7 7 7 7 7 5 5 5 5 5 6 4 5 3 2 2 2 2 2 2 2 2 2 2 3 3 3 3 2 2 1 1 2 2 2 3 3
12 14 11 16 15 18 16 13 10 9 8 8 7 7 7 7 7 6 5 4 5 5 5 5 4 3 3 2 2 2 2 2 2 2 2 3 3 3 3 2 2 1 1 2 2 2 2 3 4
10 10 16 16 21 22 17 16 15 12 11 9 8 8 7 7 7 6 6 5 5 4 5 5 5 3 2 2 2 2 2 2 2 2 2 3 3 3 2 2 2 2 1 2 3 3 3 3 4
12 14 14 14 16 20 21 17 11 11 10 9 8 7 7 6 6 6 6 5 7 4 4 4 5 3 3 3 2 2 2 2 2 2 3 3 3 3 2 1 2 2 3 3 3 3 3 3 3
10 13 13 17 18 17 17 17 8 8 9 8 8 7 7 6 6 6 6 8 7 6 4 5 3 3 3 2 2 2 2 2 2 2 2 2 2 1 1 2 2 2 2 3 3 3 2 2 3